Regional Weather Roundup
Issued by NWS

Home | Current Version | Previous Version | Text Only | Print | Product List | Glossary On
Versions: 1 2 3 4 5 6 7 8 9 10 11 12 13 14 15 16 17 18 19 20 21 22 23 24 25 26 27 28 29 30 31 32 33 34 35 36 37 38 39 40 41 42 43 44 45 46 47 48 49 50
000
ASUS45 KPSR 060310
RWRAZ

ARIZONA REGIONAL HOURLY WEATHER ROUNDUP
NATIONAL WEATHER SERVICE PHOENIX AZ
800 PM MST TUE MAY 05 2015

NOTE: FAIR INDICATES FEW OR NO CLOUDS BELOW 12,000 FEET WITH NO
SIGNIFICANT WEATHER AND/OR OBSTRUCTIONS TO VISIBILITY.

AZZ001>003-036-060400-
NORTHWEST ARIZONA

CITY           SKY/WX    TMP DP  RH WIND       PRES   REMARKS
BULLHEAD CITY  PTCLDY    82  41  23 SE18      29.72R
KINGMAN        CLEAR     67  38  34 SW16      29.86R
$$

AZZ004>008-015-016-018-060400-
NORTH CENTRAL ARIZONA

CITY           SKY/WX    TMP DP  RH WIND       PRES   REMARKS
GRAND CANYON   PTCLDY    53  42  66 SW10      29.98R
WILLIAMS       PTCLDY    50  43  76 SW10G18   30.08R
PRESCOTT       PTCLDY    59  41  51 S12       29.95R
FLAGSTAFF      MOCLDY    46  45  96 SW12      30.03R
PAYSON         MOCLDY    55  46  71 S3        30.00R
PAGE           LGT RAIN  58  51  78 NW15G39   29.86R
$$

AZZ009>014-017-060400-
NORTHEAST ARIZONA

CITY           SKY/WX    TMP DP  RH WIND       PRES   REMARKS
WINSLOW        MOCLDY    58  41  53 SW16      29.93R
SAINT JOHNS    CLOUDY    53  44  71 SW13G22   29.97R
WINDOW ROCK    CLOUDY    49  43  80 S5        29.97R
SHOW LOW       MOCLDY    48  43  81 S10       30.04R
$$

AZZ023-060400-
GREATER PHOENIX AREA

CITY           SKY/WX    TMP DP  RH WIND       PRES   REMARKS
PHOENIX        PTCLDY    82  47  29 N8        29.78R
GLENDALE       PTCLDY    81  48  32 SW5       29.80R
LUKE AFB       PTCLDY    79  51  37 N1        29.78R
DEER VALLEY    PTCLDY    78  47  33 W5        29.80R
SCOTTSDALE     PTCLDY    79  46  31 CALM      29.82R
MESA-FALCON    PTCLDY    79  45  29 W7        29.80S
CHANDLER       PTCLDY    81  46  30 W6        29.80R
$$

AZZ027-028-060400-
SOUTHWEST MARICOPA COUNTY AND PINAL COUNTY

CITY           SKY/WX    TMP DP  RH WIND       PRES   REMARKS
CASA GRANDE    MOCLDY    79  48  34 CALM      29.80R
GILA BEND      MOCLDY    81  46  30 SW14      29.78R
$$

AZZ503-504-507>509-060400-
SOUTHEAST ARIZONA

CITY           SKY/WX    TMP DP  RH WIND       PRES   REMARKS
TUCSON         PTCLDY    76  42  29 N5        29.88R
DAVIS-MONTHAN  PTCLDY    75  43  31 N5        29.87R
RYAN FIELD       N/A     75  46  35 CALM      29.87R
NOGALES        PTCLDY    67  33  28 S6        29.95R
SIERRA VISTA   PTCLDY    65  34  30 W7        29.99R
DOUGLAS        CLEAR     65  34  31 W6        29.95R
SAFFORD        CLEAR     68  44  42 NW8       29.89R
$$

AZZ020-021-025-026-031-060400-
SOUTHWEST ARIZONA

CITY           SKY/WX    TMP DP  RH WIND       PRES   REMARKS
YUMA           PTCLDY    81  45  28 S12       29.75R
$$

CAZ031-033-041-043-047-048-061-060400-
SOUTHERN CALIFORNIA

CITY           SKY/WX    TMP DP  RH WIND       PRES   REMARKS
DOWNTOWN L.A.  PTCLDY    60  49  66 VRB3      29.93R
L.A. AIRPORT   PTCLDY    59  51  75 W9        29.94S
SAN DIEGO      PTCLDY    62  48  60 NW6       29.96S
BURBANK        PTCLDY    61  46  57 S6        29.92R
ONTARIO        MOCLDY    60  47  61 SW9       29.92R
RIVERSIDE      MOCLDY    61  47  59 W6        29.92R
PALM SPRINGS   CLOUDY    76  43  30 NW20G25   29.76R
EL CENTRO NAS  MOCLDY    79  39  23 W15       29.76R
IMPERIAL       MOCLDY    76  44  32 SW6       29.74R
BLYTHE         MOCLDY    84  32  15 SW13      29.73R
NEEDLES        MOCLDY    83  31  15 S10       29.73R
$$

NVZ020-UTZ003-060400-
SOUTHERN NEVADA-UTAH

CITY           SKY/WX    TMP DP  RH WIND       PRES   REMARKS
LAS VEGAS      PTCLDY    82  34  17 SW16G25   29.67R
SALT LAKE CITY TSTM      59  50  72 NW20      29.79R
$$

NMZ009-TXZ055-060400-
NEW MEXICO-WEST TEXAS

CITY           SKY/WX    TMP DP  RH WIND       PRES   REMARKS
ALBUQUERQUE    MOCLDY    54  46  74 S3        29.94R
EL PASO        PTCLDY    74  33  22 W12       29.89R
$$


........................KEY........................
SKY/WX - SKY CONDITION/WEATHER
TMP    - TEMPERATURE IN FAHRENHEIT
DP     - DEW POINT IN FAHRENHEIT
RH     - RELATIVE HUMIDITY IN PERCENT
WIND   - DIRECTION AND SPEED IN MILES PER HOUR (MPH)
VRB    - VARIABLE WIND DIRECTION
PRES   - MEAN SEA LEVEL PRESSURE IN INCHES OF MERCURY
         F - FALLING PRESSURE   R - RISING PRESSURE
         S - STEADY PRESSURE
VSB    - VISIBILITY IN MILES
HX     - HEAT INDEX IN FAHRENHEIT
WCI    - WIND CHILL INDEX IN FAHRENHEIT
TC     - TEMPERATURE IN CELSIUS WHICH IS ALSO KNOWN AS
         TEMPERATURE IN CENTIGRADE
AFB    - AIR FORCE BASE
         LUKE AFB IS LUKE AIR FORCE BASE
         DAVIS-MONTHAN IS DAVIS-MONTHAN AIR FORCE BASE
NAS    - NAVAL AIR STATION
         EL CENTRO NAS IS EL CENTRO NAVAL AIR STATION
N/A    - NOT AVAILABLE



USA.gov is the U.S. government's official web portal to all federal, state and local government web resources and services.